Regional Weather Roundup
Issued by NWS

Home | Current Version | Previous Version | Graphics & Text | Print | Product List | Glossary On
Versions: 1 2 3 4 5 6 7 8 9 10 11 12 13 14 15 16 17 18 19 20 21 22 23 24 25 26 27 28 29 30 31 32 33 34 35 36 37 38 39 40 41 42 43 44 45 46 47 48 49 50
000
ASUS43 KDMX 020307
RWRIA

WEATHER ROUNDUP FOR IOWA
NATIONAL WEATHER SERVICE DES MOINES IA
1000 PM CDT MON JUN 01 2015

NOTE: "FAIR" INDICATES FEW OR NO CLOUDS BELOW 12,000 FEET WITH NO
SIGNIFICANT WEATHER AND/OR OBSTRUCTIONS TO VISIBILITY.

* - THESE STATIONS ARE NOT NWS STATIONS...THUS NOT UNDER NWS
QUALITY CONTROL.  THEY ALSO DO NOT REPORT WEATHER SUCH
AS PRECIPITATION OR FOG.

IAZ001>003-012>014-020>022-031>034-043>046-020400-
   NORTHWEST IOWA

CITY           SKY/WX    TMP DP  RH WIND       PRES   REMARKS
CARROLL *      CLEAR     61  48  63 SE9       30.09S
CHEROKEE *     CLEAR     64  48  55 SE9       30.06S
DENISON *      CLEAR     63  52  67 SE7       30.07R
LE MARS *      CLEAR     68  50  52 SE7       30.05R
ORANGE CITY *  CLEAR     66  48  52 S7        30.05R
SHELDON *      CLEAR     66  48  52 SE16      30.04R
SIOUX CITY     CLEAR     68  50  52 S10       30.04S
SPENCER        CLEAR     64  47  53 SE12      30.07S
$$

IAZ055>058-069>071-079>083-090>094-020400-
   SOUTHWEST IOWA

CITY           SKY/WX    TMP DP  RH WIND       PRES   REMARKS
ATLANTIC *     CLEAR     64  52  63 SE5       30.09S
AUDUBON *      CLEAR     61  52  72 S3        30.11S
CLARINDA *     CLEAR     64  54  68 SE7       30.11R
COUNCIL BLFS * CLEAR     63  54  72 SE9       30.08S
CRESTON *      CLEAR     59  55  88 SE12      30.12R
HARLAN  *      CLEAR     64  52  63 SE7       30.12S
LAMONI         CLEAR     61  53  75 SE6       30.13R
RED OAK *      CLEAR     63  54  72 SE3       30.09S
SHENANDOAH *   CLEAR     63  55  77 S5        30.09S
$$

IAZ047>049-059>061-072>074-084-020400-
   CENTRAL IOWA

CITY           SKY/WX    TMP DP  RH WIND       PRES   REMARKS
AMES           CLEAR     60  50  69 S8        30.12R
ANKENY *       CLEAR     61  54  77 S3        30.12R
CHARITON *       N/A     59  55  88 SE6       30.13S
DES MOINES     PTCLDY    62  53  72 S7        30.12R
GRINNELL*      CLEAR     61  50  67 SE3       30.14R
KNOXVILLE *    CLEAR     59  54  82 S6        30.12R
MARSHALLTOWN   CLEAR     60  49  66 E6        30.12R
PELLA *        CLEAR     59  55  88 S3        30.14R
PERRY *          N/A     61  48  63 SE8       30.11R
$$

IAZ004>006-015-016-023>025-035-036-020400-
   NORTH CENTRAL IOWA

CITY           SKY/WX    TMP DP  RH WIND       PRES   REMARKS
ALGONA *       CLEAR     61 N/A N/A SE7       30.10S
CLARION *      CLEAR     64  43  45 SE10      30.11S
ESTHERVILLE    CLEAR     60  42  51 SE9       30.08S
FORT DODGE *   CLEAR     63  43  48 SE5       30.11R
MASON CITY     CLEAR     61  44  53 SE8       30.14R
FOREST CITY *  CLEAR     59  43  55 SE7       30.12R
IOWA FALLS *     N/A     63  48  59 SE7       30.13R
$$

IAZ007>011-017>019-026>030-037>042-050>054-066-020400-
   NORTHEAST IOWA

CITY           SKY/WX    TMP DP  RH WIND       PRES   REMARKS
CEDAR RAPIDS   CLEAR     59  48  67 E8        30.14R
CHARLES CITY * CLEAR     61  37  41 SE10      30.15R
CLINTON *      CLEAR     54  43  66 E7        30.19R
DECORAH *      CLEAR     59  41  51 SE6       30.15S
DUBUQUE        PTCLDY    56  43  61 E6        30.18R
MONTICELLO *   CLEAR     57  46  67 CALM      30.17R
OELWEIN *      CLEAR     59  41  51 E8        30.16S
WATERLOO       CLEAR     58  44  60 SE6       30.13R
$$

IAZ064-065-067-068-078-020400-
   EAST CENTRAL IOWA

CITY           SKY/WX    TMP DP  RH WIND       PRES   REMARKS
DAVENPORT      MOCLDY    59  45  59 E8        30.17R
IOWA CITY      CLOUDY    64  51  62 SE5       30.16R
MT. PLEASANT * PTCLDY    59  54  82 S3        30.15S
MUSCATINE *    CLEAR     64  54  68 CALM      30.15S
QUAD CITIES    CLOUDY    63  45  51 E10       30.15R
$$

IAZ062-063-075>077-085>089-095>099-020400-
   SOUTHEAST IOWA

CITY           SKY/WX    TMP DP  RH WIND       PRES   REMARKS
BURLINGTON     CLEAR     59  55  87 CALM      30.15S
FAIRFIELD *    MOCLDY    63  55  77 S3        30.15R
FORT MADISON *   N/A     57  54  88 S3        30.16S
KEOKUK *       CLEAR     59  54  82 SE3       30.15R
OSKALOOSA *      N/A     59  54  82 S6        30.14S
CENTERVILLE *  CLEAR     55  55 100 SE3       30.16R
OTTUMWA        CLEAR     59  55  87 S5        30.14R
WASHINGTON *   CLEAR     61  55  82 S5        30.17R
$$

ABBREVIATIONS USED IN REMARKS
   TC - TEMPERATURES IN CELSIUS
  WCI - WIND CHILL INDEX
   HX - HEAT INDEX
  VSB - VISIBILITY
$$



USA.gov is the U.S. government's official web portal to all federal, state and local government web resources and services.